Lansing, MI

4:31 PM EDT on October 21, 2017 (GMT -0400)
Capital City

Weather History for KLAN - February, 2013

Change the Weather History Date:

Monday, February 11, 2013

  Actual Average Record
Temperature  
Mean Temperature 38 °F 25 °F  
Max Temperature 45 °F 32 °F 69 °F (1999)
Min Temperature 30 °F 18 °F -22 °F (1899)
Degree Days  
Heating Degree Days 27 40  
Month to date heating degree days 491 448  
Since 1 July heating degree days 4048 4288  
Cooling Degree Days 0 0  
Month to date cooling degree days 0 0  
Year to date cooling degree days 0 0  
Moisture  
Dew Point 31 °F    
Average Humidity 77    
Maximum Humidity 89    
Minimum Humidity 64    
Precipitation  
Precipitation 0.04 in 0.05 in 1.30 in (1887)
Month to date precipitation 0.72 0.51  
Year to date precipitation 4.16 2.16  
Snow  
Snow T in 0.40 in 7.70 in (1985)
Month to date snowfall 7.1 4.7  
Since 1 July snowfall 17.5 35.3  
Snow Depth 1.00 in    
Sea Level Pressure  
Sea Level Pressure 29.63 in    
Wind  
Wind Speed 22 mph (SW)    
Max Wind Speed 36 mph    
Max Gust Speed 48 mph    
Visibility 9 miles    
Events Rain , Snow    
T = Trace of Precipitation, MM = Missing Value Source: NWS Daily Summary

Daily Weather History Graph

Daily Weather History Graph

Search for Another Location

Airport or City:

Trip Planner

Search our weather history database for the weather conditions in past years. The results will help you decide how hot, cold, wet, or windy it might be!

Date:

Astronomy

Feb. 11, 2013 Rise Set
Actual Time 7:40 AM EST 6:05 PM EST
Civil Twilight 7:11 AM EST 6:34 PM EST
Nautical Twilight 6:38 AM EST 7:07 PM EST
Astronomical Twilight 6:05 AM EST 7:40 PM EST
Moon 8:01 AM EST (2/11) 8:05 PM EST (2/11)
Length of Visible Light 11h 23m
Length of Day
10h 24m
Waxing Crescent, 3% of the Moon is Illuminated
Feb 11
Waxing Crescent
Feb 17
First Quarter
Feb 25
Full
Mar 4
Last Quarter
Mar 11
New

Hourly Weather History & Observations

Time (EST) Temp. Windchill Dew Point Humidity Pressure Visibility Wind Dir Wind Speed Gust Speed Precip Events Conditions
12:53 AM 42.1 °F 34.2 °F 39.0 °F 89% 29.61 in 9.0 mi South 16.1 mph 25.3 mph 0.01 in   Overcast
1:42 AM 42.8 °F 35.8 °F 39.2 °F 87% 29.57 in 9.0 mi South 13.8 mph - N/A   Overcast
1:53 AM 43.0 °F 36.0 °F 39.9 °F 89% 29.59 in 9.0 mi South 13.8 mph 23.0 mph N/A   Overcast
2:08 AM 42.8 °F 35.4 °F 39.2 °F 87% 29.56 in 9.0 mi South 15.0 mph 23.0 mph N/A   Overcast
2:26 AM 42.8 °F 35.8 °F 39.2 °F 87% 29.56 in 9.0 mi South 13.8 mph - N/A   Mostly Cloudy
2:53 AM 44.1 °F 38.1 °F 41.0 °F 89% 29.57 in 10.0 mi South 11.5 mph - N/A   Overcast
3:11 AM 44.6 °F 38.8 °F 39.2 °F 81% 29.54 in 10.0 mi South 11.5 mph - N/A   Mostly Cloudy
3:18 AM 44.6 °F 38.8 °F 39.2 °F 81% 29.54 in 10.0 mi South 11.5 mph - N/A   Mostly Cloudy
3:25 AM 44.6 °F 39.2 °F 39.2 °F 81% 29.53 in 10.0 mi SSW 10.4 mph - N/A   Mostly Cloudy
3:40 AM 42.8 °F 38.0 °F 39.2 °F 87% 29.53 in 10.0 mi SSW 8.1 mph - N/A   Overcast
3:50 AM 44.6 °F 36.4 °F 39.2 °F 81% 29.53 in 5.0 mi SW 20.7 mph 29.9 mph 0.01 in Rain Light Rain
3:53 AM 44.1 °F 35.7 °F 39.0 °F 82% 29.54 in 6.0 mi SSW 20.7 mph 29.9 mph 0.01 in Rain Light Rain
4:03 AM 44.6 °F 36.9 °F 37.4 °F 76% 29.52 in 10.0 mi SSW 18.4 mph 33.4 mph 0.00 in Rain Light Rain
4:53 AM 44.1 °F 37.4 °F 34.0 °F 68% 29.53 in 10.0 mi SW 13.8 mph 29.9 mph 0.00 in   Scattered Clouds
5:53 AM 42.1 °F 34.5 °F 33.1 °F 70% 29.54 in 10.0 mi SW 15.0 mph 25.3 mph N/A   Mostly Cloudy
6:53 AM 39.9 °F 30.5 °F 28.9 °F 65% 29.55 in 10.0 mi WSW 19.6 mph 27.6 mph N/A   Overcast
7:53 AM 37.9 °F 27.9 °F 28.0 °F 68% 29.57 in 10.0 mi WSW 19.6 mph 28.8 mph N/A   Overcast
8:53 AM 37.0 °F 26.7 °F 26.1 °F 65% 29.58 in 10.0 mi SW 19.6 mph 31.1 mph N/A   Overcast
9:42 AM 35.6 °F 24.2 °F 26.6 °F 70% 29.58 in 10.0 mi WSW 21.9 mph 36.8 mph N/A   Overcast
9:53 AM 34.0 °F 19.5 °F 26.1 °F 73% 29.61 in 10.0 mi WSW 34.5 mph 44.9 mph 0.00 in   Overcast
10:14 AM 35.6 °F 23.4 °F 24.8 °F 65% 29.58 in 10.0 mi WSW 25.3 mph 40.3 mph 0.00 in   Overcast
10:53 AM 34.0 °F 22.1 °F 23.0 °F 64% 29.61 in 10.0 mi SW 21.9 mph 38.0 mph 0.00 in   Overcast
11:53 AM 35.1 °F 23.0 °F 24.1 °F 64% 29.62 in 6.0 mi WSW 24.2 mph 38.0 mph 0.00 in Snow Light Snow
12:53 PM 34.0 °F 20.3 °F 26.1 °F 73% 29.62 in 5.0 mi SW 29.9 mph 38.0 mph 0.00 in Snow Light Snow
1:53 PM 34.0 °F 20.3 °F 26.1 °F 73% 29.63 in 6.0 mi WSW 29.9 mph 40.3 mph 0.00 in Snow Light Snow
2:53 PM 33.1 °F 20.6 °F 26.1 °F 75% 29.65 in 10.0 mi WSW 23.0 mph 47.2 mph 0.00 in   Overcast
3:53 PM 33.1 °F 20.1 °F 26.1 °F 75% 29.68 in 10.0 mi WSW 25.3 mph 36.8 mph 0.00 in   Overcast
4:53 PM 33.1 °F 20.1 °F 26.1 °F 75% 29.71 in 10.0 mi WSW 25.3 mph 40.3 mph N/A   Overcast
5:53 PM 33.1 °F 19.3 °F 26.1 °F 75% 29.75 in 10.0 mi WSW 28.8 mph 33.4 mph N/A   Overcast
6:53 PM 33.1 °F 20.1 °F 25.0 °F 72% 29.79 in 10.0 mi West 25.3 mph 33.4 mph N/A   Overcast
7:53 PM 30.9 °F 18.1 °F 25.0 °F 79% 29.82 in 10.0 mi West 21.9 mph 32.2 mph 0.00 in   Overcast
8:53 PM 30.9 °F 19.4 °F 24.1 °F 76% 29.84 in 10.0 mi West 17.3 mph 33.4 mph N/A   Overcast
9:53 PM 30.9 °F 19.4 °F 24.1 °F 76% 29.86 in 10.0 mi West 17.3 mph 26.5 mph N/A   Overcast
10:53 PM 30.9 °F 18.7 °F 24.1 °F 76% 29.87 in 10.0 mi West 19.6 mph 27.6 mph N/A   Overcast
11:53 PM 30.0 °F 16.9 °F 21.9 °F 72% 29.89 in 10.0 mi West 21.9 mph 27.6 mph N/A   Overcast